COSMOS 2094

Satellite information

Favourite Embed

Satellite Type and Status

PAYLOADIN ORBIT

Key statistics

Satellite COSMOS 2094 at a glance.

Uptime

12754

Days in orbit

Revolutions

≈ 12.6

Per day

Orbit

LEO

Low Earth Orbit

Inclination

82.6

Latest

Satellite identification and parameters

Extended collection of information and parameters for COSMOS 2094.

Object identification

Identified? True

Debris? False

Object name: COSMOS 2094

International designator: 1990-070E

Object number (NORAD): 20739

Object ID (CCSDS): 20739

Country: COMMONWEALTH OF INDEPENDENT STATES (CIS)

Current information (Y/N): Y

RCS size: LARGE

Orbital parameters

Period: 113.857 minutes

Inclination: 82.5763 deg

SMA: 7781.561 km

Apoapsis: 1412.796 km

Periapsis: 1394.056 km

RAAN: 151.9403 deg

Eccentricy: 0.0012041

Argument of periapsis: 144.3364 deg

Mean anomaly: 274.6247 deg

Mean motion: 12.64744123 rev/day

Mean motion (dot): 0.0000001 rev/day2

B* drag term: -0.0000025009 1/REarth

Two-line elements (TLE)

Creation date: July 9, 2025, 2:22 a.m.

Reference frame: TEME

Reference center: EARTH

Epoch: July 8, 2025, 8:37 p.m. UTC

TLE line 0: 0 COSMOS 2094

TLE line 1: 1 20739U 90070E 25189.85963829 .00000010 00000-0 -25009-5 0 9995

TLE line 2: 2 20739 82.5763 151.9403 0012041 144.3364 274.6247 12.64744123611824

Live tracking on map

Real-time ground track for satellite COSMOS 2094.

In-orbit conjunctions

A list of the most updated potential collisions computed for object COSMOS 2094.

Target Orbit TCA Probability of collision Miss distance Type
SSU 1 DEB SSO 2025-02-01 08:24:57 0.0001034429 329.0 (m) DEBRIS

Associated space launch

Second generation store-dump military communications satellite

COSMOS 2094 was lifted into orbit during the mission ‘Tsiklon-3 | Strela-3 49 to 54’, on board a Tsiklon-3 space rocket.

The launch took place on Aug. 8, 1990, 4:15 a.m. from 32/2.

For more information about the launch, click the button.

Launch to space Tsiklon-3 | Strela-3 49 to 54
Tsiklon-3 | Strela-3 49 to 54

Agency: N/A

Status: Launch Successful

Launch date: Aug. 8, 1990, 4:15 a.m. UTC

Rocket: Tsiklon-3

Launch pad: 32/2

Location: Plesetsk Cosmodrome, Russian Federation

...

Latest news about this satellite

There are no fresh news available about this satellite. Check back as we update our databases every day.


Newsletter sign-up

Weekly statistics, charts and insights to help you stay on top of the space industry.